User: anonymous   Login
Location: Hickory_CSC
(35.7330°N, 81.3330°W)
Time: 12:39:05
(UTC-05:00)
Language:

Cosmos 1356 Rocket - Orbit

View from above orbital plane
View from above orbital plane
View from above satellite
View from above satellite

Ground track
Ground track

The orbit data is extracted from the following two-line orbital elements,

1 13154U 82039B   14324.79652989  .00002778  00000-0  23773-3 0  4562
2 13154 081.1853 210.0964 0042982 106.4915 254.1033 14.96582626763121
Epoch (UTC): 20 November 2014 19:07:00
Eccentricity: 0.0042982
inclination: 81.1853°
perigee height: 547 km
apogee height: 607 km
right ascension of ascending node: 210.0964°
argument of perigee: 106.4915°
revolutions per day: 14.96582626
mean anomaly at epoch: 254.1033°
orbit number at epoch: 76312

The dashed part of the orbit path shows where the satellite is in the earth's shadow,  

DLR